| time (UTC) | temp F | wind direction | speed knots | gust knots | rain 1hr in | rain 24hr in | rain mn in | humidity % | barometer mb |
| 20260506050517 | 61 | 190 | 0.9 | 2.6 | 0.00 | 0.00 | 0.00 | 69 | 1015.5 |
| 20260506044518 | 60 | 0.0 | 0.0 | 0.00 | 0.00 | 0.00 | 68 | 1015.6 | |
| 20260506043515 | 59 | 0.0 | 0.0 | 0.00 | 0.00 | 0.00 | 67 | 1015.5 | |
| 20260506042515 | 59 | 190 | 0.9 | 1.7 | 0.00 | 0.00 | 0.00 | 65 | 1015.3 |
| 20260506041518 | 59 | 192 | 0.9 | 2.6 | 0.00 | 0.00 | 0.00 | 64 | 1015.3 |
| 20260506040516 | 59 | 186 | 1.7 | 3.5 | 0.00 | 0.00 | 0.00 | 64 | 1015.0 |
| 20260506035517 | 59 | 170 | 0.9 | 2.6 | 0.00 | 0.00 | 0.00 | 63 | 1015.1 |
| 20260506034515 | 58 | 189 | 1.7 | 4.3 | 0.00 | 0.00 | 0.00 | 64 | 1015.0 |
| 20260506033517 | 59 | 204 | 1.7 | 3.5 | 0.00 | 0.00 | 0.00 | 64 | 1015.0 |
| 20260506032516 | 59 | 203 | 0.0 | 1.7 | 0.00 | 0.00 | 0.00 | 62 | 1015.0 |
| 20260506031517 | 59 | 201 | 1.7 | 3.5 | 0.00 | 0.00 | 0.00 | 62 | 1014.9 |
| 20260506030517 | 59 | 195 | 1.7 | 4.3 | 0.00 | 0.00 | 0.00 | 65 | 1014.8 |
| 20260506025516 | 58 | 183 | 2.6 | 3.5 | 0.00 | 0.00 | 0.00 | 67 | 1014.6 |
| 20260506024517 | 58 | 175 | 0.9 | 4.3 | 0.00 | 0.00 | 0.00 | 67 | 1014.7 |
| 20260506023515 | 58 | 173 | 1.7 | 3.5 | 0.00 | 0.00 | 0.00 | 67 | 1014.7 |
| 20260506022535 | 59 | 209 | 2.6 | 5.2 | 0.00 | 0.00 | 0.00 | 66 | 1014.7 |
| 20260506021516 | 61 | 180 | 2.6 | 3.5 | 0.00 | 0.00 | 0.00 | 69 | 1014.8 |
| 20260506020518 | 61 | 98 | 1.7 | 3.5 | 0.00 | 0.00 | 0.00 | 70 | 1014.8 |
| 20260506015516 | 61 | 110 | 0.9 | 2.6 | 0.00 | 0.00 | 0.00 | 70 | 1014.8 |
| 20260506014517 | 61 | 109 | 1.7 | 3.5 | 0.00 | 0.00 | 0.00 | 69 | 1014.7 |
| 20260506013518 | 62 | 114 | 1.7 | 4.3 | 0.00 | 0.00 | 0.00 | 67 | 1014.7 |
| 20260506012518 | 62 | 120 | 0.9 | 2.6 | 0.00 | 0.00 | 0.00 | 59 | 1014.8 |
| 20260506011516 | 62 | 132 | 0.9 | 4.3 | 0.00 | 0.00 | 0.00 | 54 | 1014.8 |
| 20260506010516 | 62 | 168 | 3.5 | 7.0 | 0.00 | 0.00 | 0.00 | 55 | 1014.7 |
| 20260506005514 | 62 | 158 | 2.6 | 8.7 | 0.00 | 0.00 | 0.00 | 55 | 1014.7 |
| 20260506004538 | 61 | 163 | 2.6 | 7.8 | 0.00 | 0.00 | 0.00 | 56 | 1014.7 |
| 20260506003517 | 61 | 169 | 3.5 | 7.8 | 0.00 | 0.00 | 0.00 | 58 | 1014.8 |
| 20260506002518 | 60 | 173 | 3.5 | 8.7 | 0.00 | 0.00 | 0.00 | 60 | 1014.7 |
| 20260506001559 | 60 | 168 | 2.6 | 6.1 | 0.00 | 0.00 | 0.00 | 60 | 1014.7 |
| 20260506000515 | 61 | 163 | 1.7 | 4.3 | 0.00 | 0.00 | 0.00 | 59 | 1014.7 |
| 20260505235516 | 61 | 181 | 2.6 | 7.8 | 0.00 | 0.00 | 0.00 | 57 | 1014.8 |
| 20260505234618 | 61 | 185 | 3.5 | 6.1 | 0.00 | 0.00 | 0.00 | 58 | 1014.7 |
| 20260505233557 | 60 | 180 | 2.6 | 7.0 | 0.00 | 0.00 | 0.00 | 59 | 1014.8 |
| 20260505232516 | 60 | 180 | 3.5 | 7.8 | 0.00 | 0.00 | 0.00 | 60 | 1014.9 |
| 20260505231518 | 59 | 178 | 3.5 | 8.7 | 0.00 | 0.00 | 0.00 | 62 | 1015.0 |
| 20260505230515 | 59 | 187 | 4.3 | 8.7 | 0.00 | 0.00 | 0.00 | 61 | 1015.0 |
| 20260505225518 | 60 | 183 | 3.5 | 8.7 | 0.00 | 0.00 | 0.00 | 60 | 1015.1 |
| 20260505224516 | 60 | 195 | 3.5 | 7.0 | 0.00 | 0.00 | 0.00 | 58 | 1015.2 |
| 20260505223516 | 62 | 192 | 4.3 | 7.8 | 0.00 | 0.00 | 0.00 | 56 | 1015.3 |
| 20260505222516 | 62 | 178 | 2.6 | 6.1 | 0.00 | 0.00 | 0.00 | 55 | 1015.2 |
| 20260505221516 | 62 | 168 | 2.6 | 7.0 | 0.00 | 0.00 | 0.00 | 54 | 1015.2 |
| 20260505220517 | 62 | 168 | 2.6 | 7.8 | 0.00 | 0.00 | 0.00 | 54 | 1015.1 |
| 20260505215556 | 62 | 170 | 2.6 | 6.1 | 0.00 | 0.00 | 0.00 | 54 | 1015.1 |
| 20260505214517 | 62 | 170 | 1.7 | 6.1 | 0.00 | 0.00 | 0.00 | 55 | 1015.1 |
| 20260505213516 | 62 | 177 | 3.5 | 7.8 | 0.00 | 0.00 | 0.00 | 54 | 1015.1 |
| 20260505212518 | 61 | 186 | 3.5 | 7.0 | 0.00 | 0.00 | 0.00 | 56 | 1015.1 |
| 20260505211538 | 62 | 186 | 4.3 | 7.8 | 0.00 | 0.00 | 0.00 | 55 | 1015.0 |
| 20260505210538 | 62 | 188 | 3.5 | 8.7 | 0.00 | 0.00 | 0.00 | 55 | 1015.0 |
| 20260505205537 | 61 | 194 | 4.3 | 7.8 | 0.00 | 0.00 | 0.00 | 57 | 1014.9 |
| 20260505204516 | 62 | 176 | 2.6 | 7.0 | 0.00 | 0.00 | 0.00 | 56 | 1014.9 |
| 20260505203515 | 61 | 181 | 2.6 | 5.2 | 0.00 | 0.00 | 0.00 | 56 | 1015.0 |
| 20260505202516 | 62 | 170 | 2.6 | 4.3 | 0.00 | 0.00 | 0.00 | 56 | 1015.0 |
| 20260505201617 | 62 | 167 | 1.7 | 4.3 | 0.00 | 0.00 | 0.00 | 55 | 1015.0 |
| 20260505200537 | 63 | 176 | 0.9 | 5.2 | 0.00 | 0.00 | 0.00 | 54 | 1015.0 |
| 20260505195516 | 63 | 158 | 0.9 | 3.5 | 0.00 | 0.00 | 0.00 | 53 | 1015.0 |
| 20260505194517 | 63 | 152 | 0.9 | 3.5 | 0.00 | 0.00 | 0.00 | 53 | 1015.0 |
| 20260505193515 | 62 | 188 | 2.6 | 7.0 | 0.00 | 0.00 | 0.00 | 55 | 1014.9 |
| 20260505192516 | 63 | 224 | 4.3 | 6.1 | 0.00 | 0.00 | 0.00 | 54 | 1014.9 |
| 20260505191516 | 64 | 218 | 4.3 | 7.0 | 0.00 | 0.00 | 0.00 | 52 | 1014.7 |
| 20260505190516 | 67 | 259 | 2.6 | 5.2 | 0.00 | 0.00 | 0.00 | 48 | 1014.6 |
| 20260505185517 | 68 | 179 | 3.5 | 6.1 | 0.00 | 0.00 | 0.00 | 45 | 1014.5 |
| 20260505184517 | 68 | 145 | 0.9 | 4.3 | 0.00 | 0.00 | 0.00 | 44 | 1014.4 |
| 20260505183515 | 69 | 196 | 3.5 | 7.0 | 0.00 | 0.00 | 0.00 | 42 | 1014.2 |
| 20260505182516 | 70 | 164 | 0.9 | 7.0 | 0.00 | 0.00 | 0.00 | 41 | 1014.1 |
| 20260505181516 | 70 | 0 | 2.6 | 9.6 | 0.00 | 0.00 | 0.00 | 41 | 1014.1 |
| 20260505180516 | 70 | 0 | 4.3 | 7.0 | 0.00 | 0.00 | 0.00 | 41 | 1014.0 |
| 20260505175515 | 70 | 0 | 3.5 | 7.8 | 0.00 | 0.00 | 0.00 | 42 | 1014.0 |
| 20260505174516 | 70 | 0 | 5.2 | 8.7 | 0.00 | 0.00 | 0.00 | 43 | 1013.9 |
| 20260505173517 | 71 | 0 | 2.6 | 5.2 | 0.00 | 0.00 | 0.00 | 44 | 1014.0 |
| 20260505172517 | 72 | 0 | 2.6 | 4.3 | 0.00 | 0.00 | 0.00 | 43 | 1014.1 |
| 20260505171515 | 74 | 0 | 0.9 | 3.5 | 0.00 | 0.00 | 0.00 | 41 | 1014.0 |
| 20260505170515 | 75 | 0 | 1.7 | 3.5 | 0.00 | 0.00 | 0.00 | 37 | 1014.0 |
| 20260505165517 | 76 | 48 | 2.6 | 7.0 | 0.00 | 0.00 | 0.00 | 33 | 1013.8 |
| 20260505164535 | 76 | 36 | 3.5 | 6.1 | 0.00 | 0.00 | 0.00 | 33 | 1013.9 |
| 20260505163517 | 76 | 55 | 4.3 | 8.7 | 0.00 | 0.00 | 0.00 | 33 | 1013.9 |
| 20260505162515 | 77 | 50 | 3.5 | 8.7 | 0.00 | 0.00 | 0.00 | 34 | 1013.8 |
| 20260505161517 | 77 | 51 | 4.3 | 8.7 | 0.00 | 0.00 | 0.00 | 33 | 1014.0 |
| 20260505160535 | 77 | 51 | 5.2 | 10.4 | 0.00 | 0.00 | 0.00 | 32 | 1014.0 |
| 20260505152517 | 77 | 46 | 6.1 | 11.3 | 0.00 | 0.00 | 0.00 | 36 | 1014.1 |
| 20260505151515 | 77 | 46 | 5.2 | 11.3 | 0.00 | 0.00 | 0.00 | 36 | 1014.0 |
| 20260505150515 | 77 | 39 | 5.2 | 11.3 | 0.00 | 0.00 | 0.00 | 39 | 1014.1 |
| 20260505140515 | 77 | 35 | 7.0 | 10.4 | 0.00 | 0.00 | 0.00 | 39 | 1014.2 |
| 20260505124536 | 75 | 48 | 6.1 | 10.4 | 0.00 | 0.00 | 0.00 | 44 | 1014.9 |
| 20260505123537 | 75 | 56 | 5.2 | 8.7 | 0.00 | 0.00 | 0.00 | 43 | 1015.0 |
| 20260505122515 | 75 | 54 | 5.2 | 8.7 | 0.00 | 0.00 | 0.00 | 42 | 1015.0 |
| 20260505121515 | 73 | 46 | 3.5 | 9.6 | 0.00 | 0.00 | 0.00 | 47 | 1015.1 |
| 20260505120517 | 73 | 46 | 6.1 | 9.6 | 0.00 | 0.00 | 0.00 | 47 | 1015.2 |
| 20260505115516 | 73 | 71 | 6.1 | 9.6 | 0.00 | 0.00 | 0.00 | 48 | 1015.3 |
| 20260505114515 | 73 | 39 | 5.2 | 7.8 | 0.00 | 0.00 | 0.00 | 48 | 1015.4 |
| 20260505113516 | 73 | 43 | 3.5 | 7.8 | 0.00 | 0.00 | 0.00 | 51 | 1015.5 |
| 20260505112517 | 74 | 34 | 4.3 | 7.8 | 0.00 | 0.00 | 0.00 | 51 | 1015.5 |
| 20260505111517 | 74 | 31 | 2.6 | 7.8 | 0.00 | 0.00 | 0.00 | 50 | 1015.6 |
| 20260505110517 | 74 | 36 | 2.6 | 7.0 | 0.00 | 0.00 | 0.00 | 49 | 1015.7 |
| 20260505101516 | 74 | 58 | 2.6 | 4.3 | 0.00 | 0.00 | 0.00 | 44 | 1015.9 |
| 20260505100515 | 73 | 32 | 2.6 | 5.2 | 0.00 | 0.00 | 0.00 | 46 | 1016.0 |
| 20260505095537 | 72 | 33 | 3.5 | 7.8 | 0.00 | 0.00 | 0.00 | 48 | 1016.2 |
| 20260505094515 | 71 | 1 | 3.5 | 8.7 | 0.00 | 0.00 | 0.00 | 49 | 1016.3 |
| 20260505093516 | 71 | 12 | 4.3 | 7.8 | 0.00 | 0.00 | 0.00 | 47 | 1016.4 |
| 20260505092311 | 0 | 0.0 | 0.0 | 0.00 | 0.00 | 0.00 | |||
| 20260505090038 | 70 | 37 | 3.5 | 7.8 | 0.00 | 0.00 | 0.00 | 49 | 1016.7 |
| 20260505085018 | 69 | 47 | 3.5 | 6.1 | 0.00 | 0.00 | 0.00 | 52 | 1016.6 |
| 20260505084017 | 68 | 59 | 3.5 | 7.0 | 0.00 | 0.00 | 0.00 | 53 | 1016.8 |
| 20260505083019 | 68 | 71 | 1.7 | 7.8 | 0.00 | 0.00 | 0.00 | 55 | 1016.9 |
| 20260505082015 | 67 | 52 | 2.6 | 7.0 | 0.00 | 0.00 | 0.00 | 56 | 1016.9 |
| 20260505081015 | 67 | 43 | 3.5 | 7.0 | 0.00 | 0.00 | 0.00 | 56 | 1016.9 |
| 20260505080018 | 67 | 45 | 2.6 | 5.2 | 0.00 | 0.00 | 0.00 | 58 | 1016.9 |
| 20260505075017 | 66 | 36 | 1.7 | 5.2 | 0.00 | 0.00 | 0.00 | 58 | 1017.0 |
| 20260505074016 | 67 | 24 | 1.7 | 4.3 | 0.00 | 0.00 | 0.00 | 58 | 1017.0 |
| 20260505071016 | 67 | 316 | 1.7 | 3.5 | 0.00 | 0.00 | 0.00 | 51 | 1017.1 |
| 20260505070016 | 66 | 273 | 0.9 | 5.2 | 0.00 | 0.00 | 0.00 | 52 | 1017.1 |
| 20260505065017 | 65 | 277 | 1.7 | 5.2 | 0.00 | 0.00 | 0.00 | 53 | 1017.1 |
| 20260505064019 | 64 | 274 | 2.6 | 7.0 | 0.00 | 0.00 | 0.00 | 55 | 1017.1 |
| 20260505063018 | 62 | 276 | 3.5 | 8.7 | 0.00 | 0.00 | 0.00 | 56 | 1017.0 |
| 20260505062016 | 61 | 280 | 2.6 | 7.0 | 0.00 | 0.00 | 0.00 | 58 | 1017.1 |
| 20260505061018 | 61 | 280 | 3.5 | 7.0 | 0.00 | 0.00 | 0.00 | 58 | 1017.1 |
| 20260505060016 | 61 | 273 | 2.6 | 6.1 | 0.00 | 0.00 | 0.00 | 58 | 1017.0 |